Погода в Синопе

Турция     42°01′35″N   35°09′28″E
темп.,
°C
ветер,
м/с
пор.,
м/с
влажн.,
%
обл.,
%
осадки,
мм/ч
давл.,
гПа
погр.,
м
17 апреля, сб
сб1700:00+10зсз3488100 0.0 1022118
03:00+9ссз3388100 0.0 1022209
06:00+9ссв3386100 0.0 1022280
09:00+9в4589100 0.1 1023365
12:00+9вюв7991100 0.0 1021439
15:00+10в7991100 0.0 1020299
18:00+10вюв81092100 0.3 1020324
21:00+10вюв101493100 0.3 1018346
18 апреля, вс
вс1800:00+10вюв101394100 0.6 1016303
03:00+10вюв81195100 0.9 1013213
06:00+11вюв71095100 0.0 1013150
09:00+11всв339479 0.0 101524
12:00+12в2296100 0.4 101518
15:00+13всв1192100 2.3 101412
18:00+14ю2295100 2.5 101512
21:00+12ююв3399100 2.7 101635
19 апреля, пн
пн1900:00+13юз1194100 0.1 101511
03:00+12ссз2297100 0.4 101510
06:00+12юв3398100 0.0 101513
09:00+12вюв5593100 0.0 101345
12:00+12юв71090100 0.0 101177
15:00+12в5590100 0.0 101034
18:00+12з119086 0.0 100917
21:00+11зсз6796100 0.1 1007109
20 апреля, вт
вт2000:00+12зсз91396100 0.0 1005153
03:00+12зсз121886100 0.1 1006314
06:00+11зсз689698 0.3 1006164
09:00+11ююз339186 0.7 100722
12:00+12ююв11894 0.0 100921
15:00+11зсз10158297 0.1 1013696
18:00+11зсз12198398 0.8 1015561
21:00+11з7118494 1.1 1018370
21 апреля, ср
ср2100:00+11зюз337898 0.0 101839
03:00+11ююв5687100 0.0 1018149
06:00+11вюв688497 0.0 1018191
09:00+11вюв69855 0.0 1018234
12:00+11в5684100 0.0 1019126
15:00+11вюв57833 0.0 1019167
18:00+11вюв6883100 0.0 1020171
21:00+11юв71084100 0.0 1021178